Weather History for Alliance, NE

Change the Weather History Date:

Wednesday, February 20, 2013

  Actual Average Record
Temperature  
Mean Temperature 16 °F 28 °F  
Max Temperature 19 °F 43 °F 67 °F (1972)
Min Temperature 14 °F 14 °F -21 °F (1918)
Degree Days  
Heating Degree Days 48 37  
Month to date heating degree days 689 777  
Since 1 July heating degree days 4758 5122  
Cooling Degree Days 0 0  
Month to date cooling degree days 0 0  
Year to date cooling degree days 0 0  
Moisture  
Dew Point 13 °F    
Average Humidity 70    
Maximum Humidity 84    
Minimum Humidity 56    
Precipitation  
Precipitation T in 0.01 in 0.30 in (1980)
Month to date precipitation T 0.27  
Year to date precipitation 0.22 0.45  
Sea Level Pressure  
Sea Level Pressure 29.90 in    
Wind  
Wind Speed 20 mph (SE)    
Max Wind Speed 27 mph    
Max Gust Speed 37 mph    
Visibility 7 miles    
Events Snow    
T = Trace of Precipitation, MM = Missing Value Source: NWS Daily Summary

Daily Weather History Graph

Daily Weather History Graph

Search for Another Location

Airport:

Trip Planner

Search our weather history database for the weather conditions in past years. The results will help you decide how hot, cold, wet, or windy it might be!

Date:

Astronomy

Feb. 20, 2013 Rise Set
Actual Time 6:39 AM MST 5:30 PM MST
Civil Twilight 6:11 AM MST 5:59 PM MST
Nautical Twilight 5:38 AM MST 6:31 PM MST
Astronomical Twilight 5:06 AM MST 7:04 PM MST
Moon 12:50 PM MST (2/20) 3:04 AM MST (2/20)
Length of Visible Light 11h 47m
Length of Day
10h 51m
Waxing Gibbous, 76% of the Moon is Illuminated
Feb 20
Waxing Gibbous
Feb 25
Full
Mar 4
Last Quarter
Mar 11
New
Mar 19
First Quarter

Hourly Weather History & Observations

Time (MST) Temp. Windchill Dew Point Humidity Pressure Visibility Wind Dir Wind Speed Gust Speed Precip Events Conditions
12:53 AM 18.0 °F 3.6 °F 8.1 °F 65% 30.03 in 10.0 mi SE 15.0 mph - N/A   Clear
1:53 AM 18.0 °F 2.6 °F 7.0 °F 62% 30.02 in 10.0 mi SE 17.3 mph - N/A   Clear
2:53 AM 17.1 °F 2.5 °F 6.1 °F 62% 30.01 in 10.0 mi SE 15.0 mph 23.0 mph N/A   Clear
3:53 AM 17.1 °F -1.0 °F 5.0 °F 59% 29.98 in 10.0 mi SSE 24.2 mph 33.4 mph N/A   Clear
4:53 AM 16.0 °F -3.2 °F 3.9 °F 59% 29.98 in 10.0 mi SSE 26.5 mph 36.8 mph N/A   Clear
5:53 AM 15.8 °F -3.4 °F 3.2 °F 58% 29.87 in 10.0 mi SSE 26.5 mph 34.5 mph N/A   Clear
6:53 AM 14.0 °F -4.3 °F 3.0 °F 62% 29.99 in 10.0 mi SSE 21.9 mph 27.6 mph N/A   Partly Cloudy
7:44 AM 15.8 °F -1.1 °F 3.2 °F 58% 29.87 in 10.0 mi SSE 19.6 mph 29.9 mph N/A   Mostly Cloudy
7:53 AM 15.1 °F -4.0 °F 3.0 °F 59% 30.00 in 10.0 mi SSE 25.3 mph 31.1 mph N/A   Overcast
8:53 AM 17.1 °F -1.4 °F 6.1 °F 62% 30.00 in 10.0 mi SSE 25.3 mph 33.4 mph N/A   Overcast
9:53 AM 17.6 °F -0.3 °F 8.6 °F 68% 29.87 in 10.0 mi SSE 24.2 mph 33.4 mph N/A   Overcast
10:53 AM 19.0 °F 2.7 °F 10.9 °F 71% 29.99 in 10.0 mi SSE 20.7 mph 28.8 mph N/A   Overcast
11:53 AM 19.0 °F 2.0 °F 12.0 °F 74% 29.97 in 10.0 mi SE 23.0 mph 29.9 mph N/A   Overcast
12:41 PM 19.4 °F 2.5 °F 12.2 °F 74% 29.83 in 10.0 mi SSE 23.0 mph 28.8 mph N/A   Overcast
12:53 PM 19.9 °F 3.9 °F 12.9 °F 74% 29.96 in 10.0 mi SSE 20.7 mph - N/A   Overcast
1:06 PM 19.4 °F 3.6 °F 14.0 °F 80% 29.82 in 10.0 mi SSE 19.6 mph 26.5 mph N/A   Overcast
1:53 PM 19.9 °F 4.3 °F 14.0 °F 78% 29.94 in 10.0 mi SSE 19.6 mph 26.5 mph N/A   Overcast
2:53 PM 19.9 °F 3.9 °F 15.1 °F 81% 29.93 in 10.0 mi SSE 20.7 mph - N/A   Overcast
3:00 PM 19.4 °F 2.5 °F 15.8 °F 86% 29.79 in 10.0 mi SSE 23.0 mph 28.8 mph N/A   Overcast
3:53 PM 19.9 °F 5.2 °F 15.1 °F 81% 29.94 in 10.0 mi SE 17.3 mph - N/A   Overcast
4:13 PM 19.4 °F 4.5 °F 15.8 °F 86% 29.80 in 10.0 mi SSE 17.3 mph - N/A   Overcast
4:53 PM 19.9 °F 6.7 °F 15.1 °F 81% 29.95 in 10.0 mi SE 13.8 mph - N/A   Overcast
5:53 PM 19.4 °F 6.6 °F 15.8 °F 86% 29.82 in 10.0 mi SE 12.7 mph - N/A   Overcast
6:15 PM 19.4 °F 6.6 °F 15.8 °F 86% 29.82 in 10.0 mi SE 12.7 mph - N/A   Overcast
6:53 PM 19.9 °F 7.3 °F 16.0 °F 85% 29.97 in 10.0 mi SE 12.7 mph - N/A   Overcast
7:38 PM 19.4 °F 6.0 °F 15.8 °F 86% 29.83 in 9.0 mi SE 13.8 mph - 0.00 in Snow Light Snow
7:53 PM 19.9 °F 5.7 °F 15.1 °F 81% 29.97 in 6.0 mi SE 16.1 mph - 0.00 in Snow Light Snow
8:22 PM 19.4 °F 6.0 °F 15.8 °F 86% 29.83 in 6.0 mi SE 13.8 mph - 0.00 in Snow Light Snow
8:43 PM 19.4 °F 6.0 °F 15.8 °F 86% 29.83 in 2.0 mi SE 13.8 mph - 0.00 in Snow Light Snow
8:53 PM 19.0 °F 5.0 °F 15.1 °F 85% 29.97 in 2.0 mi SE 15.0 mph - 0.00 in Snow Light Snow
9:06 PM 19.4 °F 7.2 °F 15.8 °F 86% 29.83 in 1.8 mi SE 11.5 mph - 0.00 in Snow Light Snow
9:19 PM 19.4 °F 7.9 °F 15.8 °F 86% 29.83 in 1.0 mi SE 10.4 mph - N/A Snow Light Snow
9:37 PM 19.4 °F 6.0 °F 15.8 °F 86% 29.84 in 1.2 mi SE 13.8 mph - 0.00 in Snow Light Snow
9:42 PM 19.4 °F 7.2 °F 15.8 °F 86% 29.84 in 1.5 mi SE 11.5 mph - 0.00 in Snow Light Snow
9:53 PM 19.0 °F 6.8 °F 16.0 °F 88% 29.98 in 1.0 mi SE 11.5 mph - 0.00 in Snow Light Snow
10:15 PM 19.4 °F 6.6 °F 15.8 °F 86% 29.84 in 1.0 mi SE 12.7 mph - 0.00 in Snow Light Snow
10:23 PM 19.4 °F 6.0 °F 15.8 °F 86% 29.84 in 1.2 mi SSE 13.8 mph - 0.00 in Snow Light Snow
10:34 PM 19.4 °F 6.6 °F 15.8 °F 86% 29.84 in 1.5 mi SSE 12.7 mph - 0.00 in Snow Light Snow
10:43 PM 19.4 °F 6.6 °F 15.8 °F 86% 29.84 in 2.0 mi SSE 12.7 mph - 0.00 in Snow Light Snow
10:50 PM 19.4 °F 7.2 °F 15.8 °F 86% 29.84 in 1.5 mi SSE 11.5 mph - 0.00 in Snow Light Snow
10:53 PM 19.0 °F 5.6 °F 16.0 °F 88% 29.97 in 1.8 mi SE 13.8 mph - 0.00 in Snow Light Snow
11:01 PM 19.4 °F 6.0 °F 15.8 °F 86% 29.83 in 2.5 mi SSE 13.8 mph - 0.00 in Snow Light Snow
11:05 PM 19.4 °F 6.0 °F 15.8 °F 86% 29.83 in 4.0 mi SE 13.8 mph - 0.00 in Snow Light Snow
11:19 PM 19.4 °F 4.5 °F 15.8 °F 86% 29.84 in 5.0 mi SSE 17.3 mph - 0.00 in Snow Light Snow
11:40 PM 19.4 °F 7.2 °F 15.8 °F 86% 29.83 in 9.0 mi SE 11.5 mph - 0.00 in Snow Light Snow
11:53 PM 19.9 °F 5.2 °F 16.0 °F 85% 29.96 in 9.0 mi SE 17.3 mph 21.9 mph 0.00 in Snow Light Snow